Weather in Angarka

Russia / Chukotka Autonomous Okrug     67°20′13″N   164°00′20″E
temp.,
°C
wind,
m/s
gust,
m/s
humid.,
%
clouds,
%
prec.,
mm/h
press.,
hPa
HPBL,
m
8 march, mon
mon800:00−36sw1110089 0.1 100119
03:00−38s1110067 0.0 100219
06:00−38wsw1110083 0.0 100019
09:00−34wnw119799 0.0 99919
12:00−30wnw258999 0.0 997468
15:00−29nw5891100 0.1 996712
18:00−29wnw51096100 0.4 996713
21:00−30wnw4896100 0.3 998336
9 march, tue
tue900:00−31w3798100 0.4 998313
03:00−31w2398100 0.1 99969
06:00−31w2298100 0.3 100020
09:00−30sw1198100 0.1 100328
12:00−28sw2292100 0.2 1004306
15:00−26wsw2387100 0.1 1005494
18:00−27wsw2296100 0.2 100623
21:00−27sw2299100 0.1 100919
10 march, wed
wed1000:00−28ssw3399100 0.1 101032
03:00−30ssw3310097 0.1 101132
06:00−29ssw339997 0.2 101240
09:00−28ssw229899 0.1 101454
12:00−25s349599 0.2 1014290
15:00−24s3493100 0.0 1014404
18:00−27se22100100 0.1 101419
21:00−31ese2210069 0.0 101519
11 march, thu
thu1100:00−32ese229964 0.0 101519
03:00−33ese229450 0.0 101519
06:00−33ese228451 0.0 101519
09:00−32ese22780 0.0 101519
12:00−27ese23740 0.0 1014156
15:00−24ese23750 0.0 1013227
18:00−26ese22800 0.0 101220
21:00−28e22741 0.0 101319
12 march, fri
fri1200:00−28ese22690 0.0 101319
03:00−29ese226914 0.0 101219
06:00−30ese22697 0.0 101319
09:00−29e22740 0.0 101319
12:00−23e228320 0.0 1012134
15:00−20e229058 0.0 1009193
18:00−20ene229373 0.0 100857
21:00−20ene1194100 0.0 100720